Вернуться в каталог

METEOR 2-7 DEB

АктивенPO
NORAD 28389·DEBRIS·🇷🇺 Russia

Запущен May 14, 1981 с Plesetsk Cosmodrome

Loading…

Ближайшие Пролёты (ближайшие 24 часа)

TLE

СвежийSource: Space-Track

Эпоха: Sep 14, 2026, 05:38 UTC

1 28389U 81043F   26257.23497370  .00010951  00000-0  20338-2 0  9997
2 28389  81.2690 183.5108 0026465  69.9689 290.4357 14.64895927141050

Отслеживайте METEOR 2-7 DEB в реальном времени с AllMySat

Download on the App Store